Content
SEND FEEDBACK

Daily
Averages
Monthly
Summary
United States of America

DEDEDO, GUAM


Home > North America > United States > Guam
Elevation: 364 feet     Latitude: 13 33N     Longitude: 144 49E

WEATHER
 
SELECT A DAY
Number of Records: 209,106;   Date Range: 1/1/95 - 8/12/14
 
SHARE

PRINT THIS DATA

[ ← Previous Day ]
WEATHER ALMANAC - APRIL 7, 2013
[ Next Day → ]
[ °C ]   °F
Weather ElementAverageHighLow
Temperature82.6 °F88 °F (1:54 pm)77 °F (4:54 am)
Dewpoint71.2 °F73 °F (8:54 pm)68 °F (2:54 pm)
Humidity69 %82 % (4:54 am)53 % (1:54 pm)
Barometer29.82 in29.87 in (10:54 pm)29.77 in (3:54 pm)
Wind Speed7.3 mph11.5 mph (11:54 am)
Wind Gust19.6 mph (11:54 am)
Weather ElementAverage
Visibility10 mi
Wind DirectionESE (100.9 °)

Weather ElementTotal
Precipitation---
Cooling Degree Days17.5 (Base 65)
Growing Degree Days32.5 (Base 50)
Averaged from 23 records on April 7, 2013
WEATHER CONDITIONS BREAKOUT
WIND DIRECTION BREAKOUT
WEATHER BY HOUR - APRIL 7, 2013
[ °C ]   °F
Local TimeTemperatureDewpointHumidityBarometerVisibilityWind DirectionWind SpeedGust SpeedPrecipitationEventsConditions
1:54 AM79.0 °F71.1 °F77 %29.81 in10.0 miEast (100°)3.5 mphClear
2:54 AM78.1 °F71.1 °F79 %29.80 in10.0 miEast (90°)5.8 mphClear
3:54 AM79.0 °F71.1 °F77 %29.79 in10.0 miEast (100°)5.8 mphClear
4:54 AM77.0 °F71.1 °F82 %29.79 in10.0 miESE (120°)3.5 mphClear
5:54 AM77.0 °F71.1 °F82 %29.80 in10.0 miEast (100°)3.5 mphClear
6:54 AM79.0 °F71.1 °F77 %29.81 in10.0 miESE (120°)5.8 mphPartly Cloudy
7:54 AM82.0 °F72.0 °F71 %29.84 in10.0 miESE (110°)6.9 mphPartly Cloudy
8:54 AM84.9 °F72.0 °F65 %29.86 in10.0 miEast (100°)9.2 mphScattered Clouds
9:54 AM86.0 °F71.1 °F61 %29.86 in10.0 miESE (120°)10.4 mphScattered Clouds
10:54 AM86.0 °F70.0 °F59 %29.84 in10.0 miESE (110°)10.4 mphPartly Cloudy
11:54 AM87.1 °F71.1 °F59 %29.82 in10.0 miEast (90°)11.5 mph19.6 mphPartly Cloudy
12:54 PM87.1 °F70.0 °F57 %29.81 in10.0 miEast (90°)11.5 mphPartly Cloudy
1:54 PM88.0 °F69.1 °F53 %29.79 in10.0 miEast (100°)10.4 mphPartly Cloudy
2:54 PM87.1 °F68.0 °F53 %29.78 in10.0 miEast (100°)9.2 mphPartly Cloudy
3:54 PM86.0 °F70.0 °F59 %29.77 in10.0 miEast (100°)10.4 mphPartly Cloudy
4:54 PM86.0 °F72.0 °F63 %29.78 in10.0 miESE (110°)9.2 mphPartly Cloudy
5:54 PM84.0 °F72.0 °F67 %29.79 in10.0 miESE (110°)6.9 mphPartly Cloudy
6:54 PM82.0 °F72.0 °F71 %29.81 in10.0 miESE (110°)4.6 mphClear
7:54 PM82.0 °F72.0 °F71 %29.83 in10.0 miEast (90°)4.6 mphPartly Cloudy
8:54 PM81.0 °F73.0 °F77 %29.85 in10.0 miEast (90°)4.6 mphPartly Cloudy
9:54 PM81.0 °F73.0 °F77 %29.86 in10.0 miEast (90°)6.9 mphPartly Cloudy
10:54 PM81.0 °F72.0 °F74 %29.87 in10.0 miEast (90°)5.8 mphPartly Cloudy
11:54 PM80.1 °F72.0 °F76 %29.86 in10.0 miEast (80°)6.9 mphPartly Cloudy
Hourly data recorded from PGUM, located miles away from Dededo, Guam







STORIES FROM OUR PARTNERS